Regional Weather Roundup
Issued by NWS

Home | Current Version | Previous Version | Graphics & Text | Print | Product List | Glossary On
Versions: 1 2 3 4 5 6 7 8 9 10 11 12 13 14 15 16 17 18 19 20 21 22 23 24 25 26 27 28 29 30 31 32 33 34 35 36 37 38 39 40 41 42 43 44 45 46 47 48 49 50
000
ASUS45 KBOU 271710
RWRCO

WEATHER ROUNDUP FOR COLORADO
NATIONAL WEATHER SERVICE PUEBLO CO
1100 AM MDT MON JUL 27 2015

NOTE: "FAIR" INDICATES FEW OR NO CLOUDS BELOW 12000 FEET WITH NO
SIGNIFICANT WEATHER AND/OR OBSTRUCTIONS TO VISIBILITY.

COZ001>005-013-030-031-271800-
...NORTHWEST COLORADO...

CITY           SKY/WX    TMP DP  RH WIND       PRES   REMARKS
CRAIG          MOSUNNY   84  46  26 SW15G26   30.01F
HAYDEN         MOSUNNY   77  46  33 E9        30.04F
MEEKER         MOSUNNY   81  47  30 S15G25    30.04F
MOUNT WERNER   NOT AVBL
STEAMBOAT SPGS FAIR      75  49  39 SE3       30.07F
WALDEN         FAIR      73  37  27 S12G24    30.16F
$$

COZ006>008-011-271800-
...WEST CENTRAL VALLEYS...

CITY           SKY/WX    TMP DP  RH WIND       PRES   REMARKS
GRAND JUNCTION MOSUNNY   85  47  26 SE18      29.95F
MONTROSE       MOSUNNY   83  45  26 W6        30.08F
EAGLE          MOSUNNY   72  43  35 CALM      30.12F
RIFLE          MOSUNNY   79  48  33 MISG      30.01F
DELTA          NOT AVBL
NUCLA          FAIR      82  39  21 S17G24    30.12F
$$

COZ017>023-064>068-271800-
...SOUTHWEST COLORADO...

CITY           SKY/WX    TMP DP  RH WIND       PRES   REMARKS
DURANGO        PTSUNNY   69  49  48 SE8       30.22S
CORTEZ         MOSUNNY   81  45  28 SW13      30.13F
PAGOSA SPRINGS FAIR      66  50  55 CALM      30.30S
TELLURIDE      CLOUDY    67  38  34 SW5       30.36R
WOLF CREEK PAS NOT AVBL
$$

COZ009-010-012-014-032>034-037-058>063-271800-
...CENTRAL COLORADO...

CITY           SKY/WX    TMP DP  RH WIND       PRES   REMARKS
ASPEN          MOSUNNY   77  41  27 S10G23    30.18F
BUENA VISTA    FAIR      70  47  43 CALM      30.23F
COPPER MTN     MOSUNNY   61  37  41 SW9G24    30.52S
BERTHOUD PASS  FAIR      52  43  71 W18G28    30.55S
COTTONWOOD PAS MOSUNNY   68  45  42 E5        30.37S
GUNNISON       MOSUNNY   70  46  43 CALM      30.25F
KREMMLING      MOSUNNY   73  37  27 W3        30.16F
LEADVILLE      MOSUNNY   65  40  39 S10       30.34F
MONARCH PASS   NOT AVBL
SALIDA         FAIR      77  48  35 S16       30.26F
NIWOT RIDGE    NOT AVBL
SUNLIGHT       MOSUNNY   64  48  55 CALM      30.43S
WILKERSON PASS MOSUNNY   61  43  51 SW6       30.49S
$$

COZ069>075-271800-
...SAN LUIS VALLEY/SANGRE DE CRISTO MOUNTAINS...

CITY           SKY/WX    TMP DP  RH WIND       PRES   REMARKS
ALAMOSA        PTSUNNY   69  49  48 VRB3      30.26F
LA VETA PASS   MOSUNNY   63  43  48 MISG      30.43R
SAGUACHE       CLOUDY    63  52  67 SE6       30.31S
$$

COZ035-036-038>040-271800-
...NORTHERN COLORADO FRONT RANGE...

CITY           SKY/WX    TMP DP  RH WIND       PRES   REMARKS
DENVER INTL AP MOSUNNY   90  44  20 W7        29.95F
DMNS CITY PARK NOT AVBL
AURORA         MOSUNNY   86  48  26 SW12      29.97F
FRONT RANGE AP MOSUNNY   88  45  22 SW9       29.97F
ERIE MUNI ARPT FAIR      84  53  34 E6        29.92F
BOULDER MUN AP FAIR      79  55  44 NE3       29.94F
CENTENNIAL     MOSUNNY   85  47  26 SW15      29.99F
BROOMFIELD     PTSUNNY   84  50  30 VRB6      29.97F
LOVELAND       SUNNY     79  61  53 S8        29.93F
LONGMONT       FAIR      84  58  40 CALM      29.94F
$$

COZ041-046-047-076>085-087-088-271800-
...PIKES PEAK/PALMER DIVIDE AND SOUTHERN FOOTHILLS...

CITY           SKY/WX    TMP DP  RH WIND       PRES   REMARKS
COLO. SPRINGS  PTSUNNY   80  55  42 SE7       30.05F
A. F. ACADEMY  MOSUNNY   78  58  51 S5        30.06F
ELLICOTT       FAIR     N/A N/A N/A SW14G23   30.04F
FALCON         FAIR      79  52  38 S5        30.12S
FORT CARSON    PTSUNNY   82  61  48 VRB1      30.01F
LIMON          SUNNY     81  57  43 S12       29.98F
MONUMENT HILL  MOSUNNY   79  46  31 W12       30.12S
TRINIDAD       MOSUNNY   88  50  27 SW15      30.06S
$$

COZ042>045-048>051-090-091-271800-
...NORTHEAST COLORADO...

CITY           SKY/WX    TMP DP  RH WIND       PRES   REMARKS
GREELEY ARPT   SUNNY     82  61  47 S7        29.92F
AKRON            N/A    N/A N/A N/A MISG      29.91F
BURLINGTON     MOSUNNY   81  64  56 S17       29.95S
WRAY           FAIR      89  60  37 S18G24    29.88F
STERLING       NOT AVBL
HOLYOKE        FAIR      84  68  58 SE9       29.88S
FORT MORGAN    FAIR      79  61  52 SW8       29.91S
$$

COZ086-089-092>099-271800-
...SOUTHEAST COLORADO...

CITY           SKY/WX    TMP DP  RH WIND       PRES   REMARKS
PUEBLO         PTSUNNY   86  55  34 CALM      29.95F
LA JUNTA       SUNNY     93  53  25 S13G22    29.93F
LAMAR          SUNNY     90  64  42 S18G25    29.90S
SPRINGFIELD      N/A     84  64  50 S20       29.99S
$$



USA.gov is the U.S. government's official web portal to all federal, state and local government web resources and services.